Weather History for Frederick, OK

Change the Weather History Date:

Sunday, October 14, 2012

  Actual Average (KLTS) Record (KLTS)
Temperature  
Mean Temperature 68 °F -  
Max Temperature 84 °F 74 °F 87 °F (1998)
Min Temperature 55 °F 50 °F 42 °F (1997)
Cooling Degree Days 4    
Growing Degree Days 18 (Base 50)    
Moisture  
Dew Point 41 °F    
Average Humidity 39    
Maximum Humidity 67    
Minimum Humidity 19    
Precipitation  
Precipitation 0.00 in - - ()
Sea Level Pressure  
Sea Level Pressure 29.99 in    
Wind  
Wind Speed 12 mph (NW)    
Max Wind Speed 23 mph    
Max Gust Speed 26 mph    
Visibility 10 miles    
Events      
Averages and records for this station are not official NWS values.
T = Trace of Precipitation, MM = Missing Value Source: NWS Daily Summary

Daily Weather History Graph

Daily Weather History Graph

Search for Another Location

Airport:

Trip Planner

Search our weather history database for the weather conditions in past years. The results will help you decide how hot, cold, wet, or windy it might be!

Date:

Astronomy

Oct. 14, 2012 Rise Set
Actual Time 7:40 AM CDT 7:02 PM CDT
Civil Twilight 7:15 AM CDT 7:27 PM CDT
Nautical Twilight 6:46 AM CDT 7:56 PM CDT
Astronomical Twilight 6:17 AM CDT 8:25 PM CDT
Moon 6:42 AM CDT (10/14) 6:23 PM CDT (10/14)
Length of Visible Light 12h 11m
Length of Day
11h 21m
Waning Crescent, 1% of the Moon is Illuminated
Oct 14
Waning Crescent
Oct 15
New
Oct 21
First Quarter
Oct 29
Full
Nov 6
Last Quarter

Hourly Weather History & Observations

Time (CDT) Temp. Dew Point Humidity Pressure Visibility Wind Dir Wind Speed Gust Speed Precip Events Conditions
12:53 AM 64.9 °F 39.0 °F 39% 29.81 in 10.0 mi WNW 13.8 mph - N/A   Clear
1:53 AM 61.0 °F 41.0 °F 48% 29.83 in 10.0 mi WNW 9.2 mph - N/A   Clear
2:53 AM 63.0 °F 41.0 °F 45% 29.85 in 10.0 mi WNW 11.5 mph - N/A   Clear
3:53 AM 62.1 °F 43.0 °F 50% 29.85 in 10.0 mi WNW 13.8 mph - N/A   Clear
4:53 AM 61.0 °F 44.1 °F 54% 29.85 in 10.0 mi WNW 15.0 mph - N/A   Clear
5:53 AM 60.1 °F 45.0 °F 57% 29.89 in 10.0 mi WNW 13.8 mph - N/A   Clear
6:53 AM 57.9 °F 45.0 °F 62% 29.94 in 10.0 mi WNW 11.5 mph - N/A   Clear
7:53 AM 55.9 °F 45.0 °F 67% 29.99 in 10.0 mi WNW 10.4 mph - N/A   Clear
8:53 AM 61.0 °F 46.0 °F 58% 30.01 in 10.0 mi WNW 9.2 mph - N/A   Clear
9:53 AM 66.9 °F 45.0 °F 45% 30.05 in 10.0 mi NW 17.3 mph - N/A   Clear
10:53 AM 73.0 °F 42.1 °F 33% 30.06 in 10.0 mi NNW 17.3 mph - N/A   Clear
11:53 AM 77.0 °F 39.9 °F 26% 30.07 in 10.0 mi North 23.0 mph 26.5 mph N/A   Clear
12:53 PM 81.0 °F 37.0 °F 21% 30.08 in 10.0 mi NNE 19.6 mph 24.2 mph N/A   Clear
1:53 PM 82.0 °F 37.0 °F 20% 30.06 in 10.0 mi North 18.4 mph 23.0 mph N/A   Clear
3:53 PM 82.9 °F 36.0 °F 19% 30.03 in 10.0 mi NNW 12.7 mph 21.9 mph N/A   Clear
4:53 PM 82.9 °F 36.0 °F 19% 30.02 in 10.0 mi North 12.7 mph - N/A   Clear
5:53 PM 82.0 °F 36.0 °F 19% 30.01 in 10.0 mi North 6.9 mph - N/A   Clear
6:53 PM 77.0 °F 37.0 °F 24% 30.03 in 10.0 mi Calm Calm - N/A   Clear
7:53 PM 70.0 °F 37.0 °F 30% 30.04 in 10.0 mi ENE 5.8 mph - N/A   Clear
8:53 PM 68.0 °F 39.0 °F 35% 30.04 in 10.0 mi SE 3.5 mph - N/A   Clear
9:53 PM 66.0 °F 39.9 °F 38% 30.06 in 10.0 mi ESE 6.9 mph - N/A   Clear
10:53 PM 63.0 °F 41.0 °F 45% 30.08 in 10.0 mi South 4.6 mph - N/A   Clear
11:53 PM 62.1 °F 43.0 °F 50% 30.08 in 7.0 mi SW 4.6 mph - N/A   Clear